Flag for Switzerland Weather past 2 weeks in Zug, Zug, Switzerland

Now
50 °F

Overcast.


Feels Like: 47 °F
Forecast: 54 / 69 °F
Wind: 7 mph from Southwest

Location: Zurich Town / Ville.

Current Time: Jul 10, 2014 at 8:46:12 AM

Latest Report: Jul 10, 2014 at 8:00 AM


Visibility: N/A

Pressure: 29.83 "Hg

Humidity: 89%

Dew point: 47 °F

Location of ZugLocation

Historic Weather in Zug — Graph

°F

Zug temperature yesterday

Maximum temperature yesterday: 55 °F (at 10:00 AM)
Minimum temperature yesterday: 50 °F (at 10:00 PM)
Average temperature yesterday: 53 °F

Past Weeks' High & Low Weather Summary

 TemperatureHumidityPressure
High77 °F (Jul 3, 5:00 PM)98% (Jul 3, 1:00 AM)30.30 "Hg (Jul 3, 1:00 AM)
Low49 °F (Jul 1, 5:00 AM)35% (Jun 27, 3:00 PM)29.75 "Hg (Jul 4, 6:00 PM)
Average61 °F77%29.97 "Hg
* Reported Jun 25 7:00 AM — Jul 10 7:00 AM, Zug, Weather by CustomWeather, © 2014

Note: Actual official high and low records may vary slightly from our data, if they occured in-between our weather recording intervals... More about our weather records

Advertising

Zug weather history for previous 24 hours

 ConditionsComfort  
Time TempWeatherWind HumidityBarometerVisibility
7:00 AM
Jul 10
50 °FCool.6 mph88%29.83 "HgN/A
6:00 AM50 °FCool.8 mph85%29.84 "HgN/A
5:00 AM49 °FCool.6 mph87%29.84 "HgN/A
4:00 AM49 °FCool.7 mph88%29.85 "HgN/A
3:00 AM50 °FCool.8 mph88%29.86 "HgN/A
2:00 AM49 °FCool.7 mph91%29.88 "HgN/A
1:00 AM50 °FCool.10 mph91%29.89 "HgN/A
12:00 AM50 °FCool.10 mph92%29.90 "HgN/A
11:00 PM
Jul 9
51 °FCool.9 mph91%29.91 "HgN/A
10:00 PM50 °FCool.9 mph91%29.92 "HgN/A
9:00 PM51 °FCool.10 mph94%29.91 "HgN/A
8:00 PM51 °FFog.7 mph94%29.90 "HgN/A
7:00 PM52 °FCool.6 mph95%29.91 "HgN/A
6:00 PM53 °FCool.8 mph89%29.91 "HgN/A
5:00 PM53 °FCool.5 mph90%29.92 "HgN/A
4:00 PM54 °FCool.5 mph92%29.91 "HgN/A
3:00 PM53 °FCool.8 mph92%29.91 "HgN/A
10:00 AM55 °FCool.6 mph82%29.90 "HgN/A
Weather by CustomWeather, © 2014

See weather overviewHow to use our weather pages